Latitude,Longitude,Time,Lat,Lon,Start Time,End Time
30.08616,-97.15039,2015/10/16 12:57:14,30.0861644744873,-97.150390625,2015/10/16 12:57:14,2015/10/16 01:36:34
30.08622,-97.15002,2015/10/16 12:57:15,30.086217880249,-97.150016784668,2015/10/16 12:57:14,2015/10/16 01:36:34
30.08624,-97.1497,2015/10/16 12:57:16,30.0862407684326,-97.1497039794922,2015/10/16 12:57:14,2015/10/16 01:36:34
30.08624,-97.14939,2015/10/16 12:57:17,30.0862407684326,-97.1493911743164,2015/10/16 12:57:14,2015/10/16 01:36:34
30.08621,-97.14908,2015/10/16 12:57:18,30.0862121582031,-97.1490783691406,2015/10/16 12:57:14,2015/10/16 01:36:34
30.08616,-97.14878,2015/10/16 12:57:19,30.0861568450928,-97.1487808227539,2015/10/16 12:57:14,2015/10/16 01:36:34
30.08607,-97.1485,2015/10/16 12:57:20,30.0860729217529,-97.1484985351563,2015/10/16 12:57:14,2015/10/16 01:36:34
30.08596,-97.14824,2015/10/16 12:57:21,30.0859603881836,-97.1482391357422,2015/10/16 12:57:14,2015/10/16 01:36:34
30.08582,-97.148,2015/10/16 12:57:22,30.0858249664307,-97.1480026245117,2015/10/16 12:57:14,2015/10/16 01:36:34
30.08566,-97.14779,2015/10/16 12:57:23,30.0856647491455,-97.1477890014648,2015/10/16 12:57:14,2015/10/16 01:36:34
30.08548,-97.14758,2015/10/16 12:57:24,30.0854816436768,-97.1475830078125,2015/10/16 12:57:14,2015/10/16 01:36:34
30.08529,-97.14741,2015/10/16 12:57:25,30.0852947235107,-97.1474075317383,2015/10/16 12:57:14,2015/10/16 01:36:34
30.08511,-97.14725,2015/10/16 12:57:26,30.0851078033447,-97.1472549438477,2015/10/16 12:57:14,2015/10/16 01:36:34
30.08491,-97.14709,2015/10/16 12:57:27,30.0849056243896,-97.1470947265625,2015/10/16 12:57:14,2015/10/16 01:36:34
30.0847,-97.14696,2015/10/16 12:57:28,30.0846996307373,-97.1469573974609,2015/10/16 12:57:14,2015/10/16 01:36:34
30.08449,-97.14683,2015/10/16 12:57:29,30.0844879150391,-97.1468276977539,2015/10/16 12:57:14,2015/10/16 01:36:34
30.08427,-97.14671,2015/10/16 12:57:30,30.0842704772949,-97.1467132568359,2015/10/16 12:57:14,2015/10/16 01:36:34
30.08405,-97.1466,2015/10/16 12:57:31,30.0840492248535,-97.146598815918,2015/10/16 12:57:14,2015/10/16 01:36:34
30.08382,-97.14651,2015/10/16 12:57:32,30.0838184356689,-97.1465072631836,2015/10/16 12:57:14,2015/10/16 01:36:34
30.08359,-97.14643,2015/10/16 12:57:33,30.0835914611816,-97.1464309692383,2015/10/16 12:57:14,2015/10/16 01:36:34
30.08334,-97.14637,2015/10/16 12:57:34,30.0833435058594,-97.146369934082,2015/10/16 12:57:14,2015/10/16 01:36:34
30.08311,-97.14634,2015/10/16 12:57:35,30.0831050872803,-97.1463394165039,2015/10/16 12:57:14,2015/10/16 01:36:34
30.08285,-97.14633,2015/10/16 12:57:36,30.0828533172607,-97.1463317871094,2015/10/16 12:57:14,2015/10/16 01:36:34
30.08259,-97.14634,2015/10/16 12:57:37,30.0825862884521,-97.1463394165039,2015/10/16 12:57:14,2015/10/16 01:36:34
30.08234,-97.14637,2015/10/16 12:57:38,30.0823402404785,-97.146369934082,2015/10/16 12:57:14,2015/10/16 01:36:34
30.08208,-97.14642,2015/10/16 12:57:39,30.0820827484131,-97.1464157104492,2015/10/16 12:57:14,2015/10/16 01:36:34
30.08182,-97.14647,2015/10/16 12:57:40,30.0818176269531,-97.1464691162109,2015/10/16 12:57:14,2015/10/16 01:36:34
30.08157,-97.14652,2015/10/16 12:57:41,30.0815677642822,-97.1465225219727,2015/10/16 12:57:14,2015/10/16 01:36:34
30.08131,-97.14658,2015/10/16 12:57:42,30.0813102722168,-97.1465759277344,2015/10/16 12:57:14,2015/10/16 01:36:34
30.08105,-97.14662,2015/10/16 12:57:43,30.0810546875,-97.1466217041016,2015/10/16 12:57:14,2015/10/16 01:36:34
30.0808,-97.14666,2015/10/16 12:57:44,30.0807971954346,-97.1466598510742,2015/10/16 12:57:14,2015/10/16 01:36:34
30.08054,-97.1467,2015/10/16 12:57:45,30.0805377960205,-97.1466979980469,2015/10/16 12:57:14,2015/10/16 01:36:34
30.08027,-97.14674,2015/10/16 12:57:46,30.0802707672119,-97.1467361450195,2015/10/16 12:57:14,2015/10/16 01:36:34
30.08002,-97.14677,2015/10/16 12:57:47,30.080020904541,-97.1467666625977,2015/10/16 12:57:14,2015/10/16 01:36:34
30.07976,-97.1468,2015/10/16 12:57:48,30.0797595977783,-97.1467971801758,2015/10/16 12:57:14,2015/10/16 01:36:34
30.07951,-97.14683,2015/10/16 12:57:49,30.0795059204102,-97.1468276977539,2015/10/16 12:57:14,2015/10/16 01:36:34
30.07925,-97.14685,2015/10/16 12:57:50,30.0792503356934,-97.1468505859375,2015/10/16 12:57:14,2015/10/16 01:36:34
30.079,-97.14688,2015/10/16 12:57:51,30.0789985656738,-97.1468811035156,2015/10/16 12:57:14,2015/10/16 01:36:34
30.07875,-97.14691,2015/10/16 12:57:52,30.0787487030029,-97.1469116210938,2015/10/16 12:57:14,2015/10/16 01:36:34
30.0785,-97.14694,2015/10/16 12:57:53,30.078498840332,-97.1469421386719,2015/10/16 12:57:14,2015/10/16 01:36:34
30.07826,-97.14698,2015/10/16 12:57:54,30.0782566070557,-97.1469802856445,2015/10/16 12:57:14,2015/10/16 01:36:34
30.07801,-97.14703,2015/10/16 12:57:55,30.0780124664307,-97.1470260620117,2015/10/16 12:57:14,2015/10/16 01:36:34
30.07777,-97.14708,2015/10/16 12:57:56,30.0777721405029,-97.1470794677734,2015/10/16 12:57:14,2015/10/16 01:36:34
30.07753,-97.14715,2015/10/16 12:57:57,30.0775318145752,-97.1471481323242,2015/10/16 12:57:14,2015/10/16 01:36:34
30.0773,-97.14723,2015/10/16 12:57:58,30.0773029327393,-97.1472320556641,2015/10/16 12:57:14,2015/10/16 01:36:34
30.07708,-97.14734,2015/10/16 12:57:59,30.0770816802979,-97.1473388671875,2015/10/16 12:57:14,2015/10/16 01:36:34
30.07687,-97.14748,2015/10/16 12:58:00,30.0768661499023,-97.1474761962891,2015/10/16 12:57:14,2015/10/16 01:36:34
30.07668,-97.14764,2015/10/16 12:58:01,30.0766830444336,-97.1476364135742,2015/10/16 12:57:14,2015/10/16 01:36:34
30.07652,-97.14783,2015/10/16 12:58:02,30.0765190124512,-97.1478271484375,2015/10/16 12:57:14,2015/10/16 01:36:34
30.07638,-97.14804,2015/10/16 12:58:03,30.0763816833496,-97.1480407714844,2015/10/16 12:57:14,2015/10/16 01:36:34
30.07627,-97.14828,2015/10/16 12:58:04,30.0762710571289,-97.1482772827148,2015/10/16 12:57:14,2015/10/16 01:36:34
30.07617,-97.14853,2015/10/16 12:58:05,30.0761737823486,-97.1485290527344,2015/10/16 12:57:14,2015/10/16 01:36:34
30.07608,-97.14877,2015/10/16 12:58:06,30.0760765075684,-97.1487731933594,2015/10/16 12:57:14,2015/10/16 01:36:34
30.07597,-97.14902,2015/10/16 12:58:07,30.0759696960449,-97.1490249633789,2015/10/16 12:57:14,2015/10/16 01:36:34
30.07585,-97.14928,2015/10/16 12:58:08,30.0758533477783,-97.1492767333984,2015/10/16 12:57:14,2015/10/16 01:36:34
30.07574,-97.14952,2015/10/16 12:58:09,30.0757427215576,-97.1495208740234,2015/10/16 12:57:14,2015/10/16 01:36:34
30.07563,-97.14977,2015/10/16 12:58:10,30.0756301879883,-97.149772644043,2015/10/16 12:57:14,2015/10/16 01:36:34
30.07552,-97.15003,2015/10/16 12:58:11,30.0755214691162,-97.150032043457,2015/10/16 12:57:14,2015/10/16 01:36:34
30.07541,-97.15028,2015/10/16 12:58:12,30.0754127502441,-97.1502838134766,2015/10/16 12:57:14,2015/10/16 01:36:34
30.0753,-97.15055,2015/10/16 12:58:13,30.0753002166748,-97.1505508422852,2015/10/16 12:57:14,2015/10/16 01:36:34
30.07519,-97.15079,2015/10/16 12:58:14,30.0751895904541,-97.1507949829102,2015/10/16 12:57:14,2015/10/16 01:36:34
30.07506,-97.15105,2015/10/16 12:58:15,30.0750598907471,-97.1510467529297,2015/10/16 12:57:14,2015/10/16 01:36:34
30.07491,-97.15128,2015/10/16 12:58:16,30.0749130249023,-97.1512756347656,2015/10/16 12:57:14,2015/10/16 01:36:34
30.07474,-97.15147,2015/10/16 12:58:17,30.0747394561768,-97.1514739990234,2015/10/16 12:57:14,2015/10/16 01:36:34
30.07454,-97.15165,2015/10/16 12:58:18,30.0745429992676,-97.1516494750977,2015/10/16 12:57:14,2015/10/16 01:36:34
30.07432,-97.15179,2015/10/16 12:58:19,30.0743160247803,-97.1517868041992,2015/10/16 12:57:14,2015/10/16 01:36:34
30.07409,-97.15189,2015/10/16 12:58:20,30.0740947723389,-97.1518859863281,2015/10/16 12:57:14,2015/10/16 01:36:34
30.07386,-97.15198,2015/10/16 12:58:21,30.073860168457,-97.1519775390625,2015/10/16 12:57:14,2015/10/16 01:36:34
30.07363,-97.15208,2015/10/16 12:58:22,30.0736255645752,-97.1520767211914,2015/10/16 12:57:14,2015/10/16 01:36:34
30.0734,-97.15219,2015/10/16 12:58:23,30.0733966827393,-97.1521911621094,2015/10/16 12:57:14,2015/10/16 01:36:34
30.07318,-97.15232,2015/10/16 12:58:24,30.0731792449951,-97.1523208618164,2015/10/16 12:57:14,2015/10/16 01:36:34
30.07297,-97.15247,2015/10/16 12:58:25,30.0729694366455,-97.152473449707,2015/10/16 12:57:14,2015/10/16 01:36:34
30.07277,-97.15265,2015/10/16 12:58:26,30.072774887085,-97.1526489257813,2015/10/16 12:57:14,2015/10/16 01:36:34
30.0726,-97.15284,2015/10/16 12:58:27,30.0725955963135,-97.1528396606445,2015/10/16 12:57:14,2015/10/16 01:36:34
30.07243,-97.15307,2015/10/16 12:58:28,30.0724258422852,-97.1530685424805,2015/10/16 12:57:14,2015/10/16 01:36:34
30.07229,-97.15329,2015/10/16 12:58:29,30.0722904205322,-97.1532897949219,2015/10/16 12:57:14,2015/10/16 01:36:34
30.07217,-97.15353,2015/10/16 12:58:30,30.0721683502197,-97.1535339355469,2015/10/16 12:57:14,2015/10/16 01:36:34
30.07206,-97.15378,2015/10/16 12:58:31,30.0720558166504,-97.1537780761719,2015/10/16 12:57:14,2015/10/16 01:36:34
30.07194,-97.15402,2015/10/16 12:58:32,30.0719413757324,-97.1540222167969,2015/10/16 12:57:14,2015/10/16 01:36:34
30.07182,-97.15426,2015/10/16 12:58:33,30.0718154907227,-97.1542587280273,2015/10/16 12:57:14,2015/10/16 01:36:34
30.07167,-97.15448,2015/10/16 12:58:34,30.0716705322266,-97.1544799804688,2015/10/16 12:57:14,2015/10/16 01:36:34
30.07152,-97.15468,2015/10/16 12:58:35,30.0715198516846,-97.1546783447266,2015/10/16 12:57:14,2015/10/16 01:36:34
30.07136,-97.15485,2015/10/16 12:58:36,30.0713558197021,-97.1548538208008,2015/10/16 12:57:14,2015/10/16 01:36:34
30.07119,-97.15502,2015/10/16 12:58:37,30.0711879730225,-97.1550216674805,2015/10/16 12:57:14,2015/10/16 01:36:34
30.07102,-97.15517,2015/10/16 12:58:38,30.0710182189941,-97.1551742553711,2015/10/16 12:57:14,2015/10/16 01:36:34
30.07085,-97.15532,2015/10/16 12:58:39,30.0708503723145,-97.1553192138672,2015/10/16 12:57:14,2015/10/16 01:36:34
30.07069,-97.15547,2015/10/16 12:58:40,30.0706920623779,-97.1554718017578,2015/10/16 12:57:14,2015/10/16 01:36:34
30.07055,-97.15562,2015/10/16 12:58:41,30.0705451965332,-97.1556167602539,2015/10/16 12:57:14,2015/10/16 01:36:34
30.07041,-97.15577,2015/10/16 12:58:42,30.070405960083,-97.1557693481445,2015/10/16 12:57:14,2015/10/16 01:36:34
30.07027,-97.15593,2015/10/16 12:58:43,30.0702743530273,-97.1559295654297,2015/10/16 12:57:14,2015/10/16 01:36:34
30.07016,-97.15608,2015/10/16 12:58:44,30.0701560974121,-97.1560821533203,2015/10/16 12:57:14,2015/10/16 01:36:34
30.07004,-97.15624,2015/10/16 12:58:45,30.0700435638428,-97.1562423706055,2015/10/16 12:57:14,2015/10/16 01:36:34
30.06993,-97.1564,2015/10/16 12:58:46,30.0699348449707,-97.1564025878906,2015/10/16 12:57:14,2015/10/16 01:36:34
30.06982,-97.15657,2015/10/16 12:58:47,30.06982421875,-97.1565704345703,2015/10/16 12:57:14,2015/10/16 01:36:34
30.06972,-97.15672,2015/10/16 12:58:48,30.0697231292725,-97.1567230224609,2015/10/16 12:57:14,2015/10/16 01:36:34
30.06961,-97.15688,2015/10/16 12:58:49,30.0696144104004,-97.1568832397461,2015/10/16 12:57:14,2015/10/16 01:36:34
30.06951,-97.15704,2015/10/16 12:58:50,30.0695056915283,-97.1570434570313,2015/10/16 12:57:14,2015/10/16 01:36:34
30.0694,-97.1572,2015/10/16 12:58:51,30.0693950653076,-97.1571960449219,2015/10/16 12:57:14,2015/10/16 01:36:34
30.06928,-97.15735,2015/10/16 12:58:52,30.069278717041,-97.1573486328125,2015/10/16 12:57:14,2015/10/16 01:36:34
30.06916,-97.15749,2015/10/16 12:58:53,30.0691585540771,-97.1574859619141,2015/10/16 12:57:14,2015/10/16 01:36:34
30.06903,-97.15761,2015/10/16 12:58:54,30.0690307617188,-97.1576080322266,2015/10/16 12:57:14,2015/10/16 01:36:34
30.06889,-97.15773,2015/10/16 12:58:55,30.0688896179199,-97.1577301025391,2015/10/16 12:57:14,2015/10/16 01:36:34
30.06875,-97.15782,2015/10/16 12:58:56,30.0687503814697,-97.1578216552734,2015/10/16 12:57:14,2015/10/16 01:36:34
30.0686,-97.1579,2015/10/16 12:58:57,30.068603515625,-97.1578979492188,2015/10/16 12:57:14,2015/10/16 01:36:34
30.06845,-97.15796,2015/10/16 12:58:58,30.0684452056885,-97.157958984375,2015/10/16 12:57:14,2015/10/16 01:36:34
30.0683,-97.158,2015/10/16 12:58:59,30.0683002471924,-97.1580047607422,2015/10/16 12:57:14,2015/10/16 01:36:34
30.06815,-97.15804,2015/10/16 12:59:00,30.0681476593018,-97.1580352783203,2015/10/16 12:57:14,2015/10/16 01:36:34
30.06799,-97.15807,2015/10/16 12:59:01,30.0679893493652,-97.1580657958984,2015/10/16 12:57:14,2015/10/16 01:36:34
30.06784,-97.15809,2015/10/16 12:59:02,30.0678405761719,-97.158088684082,2015/10/16 12:57:14,2015/10/16 01:36:34
30.06769,-97.15811,2015/10/16 12:59:03,30.0676860809326,-97.1581115722656,2015/10/16 12:57:14,2015/10/16 01:36:34
30.06753,-97.15813,2015/10/16 12:59:04,30.0675258636475,-97.1581268310547,2015/10/16 12:57:14,2015/10/16 01:36:34
30.06737,-97.15814,2015/10/16 12:59:05,30.0673694610596,-97.1581420898438,2015/10/16 12:57:14,2015/10/16 01:36:34
30.06721,-97.15814,2015/10/16 12:59:06,30.0672073364258,-97.1581420898438,2015/10/16 12:57:14,2015/10/16 01:36:34
30.06704,-97.15815,2015/10/16 12:59:07,30.0670413970947,-97.1581497192383,2015/10/16 12:57:14,2015/10/16 01:36:34
30.06688,-97.15816,2015/10/16 12:59:08,30.0668754577637,-97.1581573486328,2015/10/16 12:57:14,2015/10/16 01:36:34
30.06671,-97.15816,2015/10/16 12:59:09,30.066707611084,-97.1581649780273,2015/10/16 12:57:14,2015/10/16 01:36:34
30.06654,-97.15817,2015/10/16 12:59:10,30.0665397644043,-97.1581726074219,2015/10/16 12:57:14,2015/10/16 01:36:34
30.06637,-97.15819,2015/10/16 12:59:11,30.0663719177246,-97.1581878662109,2015/10/16 12:57:14,2015/10/16 01:36:34
30.0662,-97.1582,2015/10/16 12:59:12,30.0662021636963,-97.1581954956055,2015/10/16 12:57:14,2015/10/16 01:36:34
30.06603,-97.1582,2015/10/16 12:59:13,30.0660266876221,-97.158203125,2015/10/16 12:57:14,2015/10/16 01:36:34
30.06586,-97.15821,2015/10/16 12:59:14,30.0658569335938,-97.1582107543945,2015/10/16 12:57:14,2015/10/16 01:36:34
30.06568,-97.15822,2015/10/16 12:59:15,30.0656814575195,-97.1582183837891,2015/10/16 12:57:14,2015/10/16 01:36:34
30.06551,-97.15823,2015/10/16 12:59:16,30.0655059814453,-97.1582260131836,2015/10/16 12:57:14,2015/10/16 01:36:34
30.06533,-97.15823,2015/10/16 12:59:17,30.0653266906738,-97.1582336425781,2015/10/16 12:57:14,2015/10/16 01:36:34
30.06514,-97.15825,2015/10/16 12:59:18,30.0651435852051,-97.1582489013672,2015/10/16 12:57:14,2015/10/16 01:36:34
30.06495,-97.15827,2015/10/16 12:59:19,30.0649547576904,-97.1582717895508,2015/10/16 12:57:14,2015/10/16 01:36:34
30.06477,-97.15829,2015/10/16 12:59:20,30.0647659301758,-97.1582946777344,2015/10/16 12:57:14,2015/10/16 01:36:34
30.06458,-97.15832,2015/10/16 12:59:21,30.0645809173584,-97.158317565918,2015/10/16 12:57:14,2015/10/16 01:36:34
30.06439,-97.15833,2015/10/16 12:59:22,30.0643863677979,-97.158332824707,2015/10/16 12:57:14,2015/10/16 01:36:34
30.06418,-97.15835,2015/10/16 12:59:23,30.0641822814941,-97.1583480834961,2015/10/16 12:57:14,2015/10/16 01:36:34
30.06399,-97.15835,2015/10/16 12:59:24,30.0639915466309,-97.1583480834961,2015/10/16 12:57:14,2015/10/16 01:36:34
30.06379,-97.15833,2015/10/16 12:59:25,30.0637874603271,-97.158332824707,2015/10/16 12:57:14,2015/10/16 01:36:34
30.06359,-97.15832,2015/10/16 12:59:26,30.0635948181152,-97.158317565918,2015/10/16 12:57:14,2015/10/16 01:36:34
30.06339,-97.15829,2015/10/16 12:59:27,30.0633926391602,-97.1582946777344,2015/10/16 12:57:14,2015/10/16 01:36:34
30.06318,-97.15827,2015/10/16 12:59:28,30.0631790161133,-97.1582717895508,2015/10/16 12:57:14,2015/10/16 01:36:34
30.06298,-97.15825,2015/10/16 12:59:29,30.0629787445068,-97.1582489013672,2015/10/16 12:57:14,2015/10/16 01:36:34
30.06277,-97.15823,2015/10/16 12:59:30,30.0627708435059,-97.1582336425781,2015/10/16 12:57:14,2015/10/16 01:36:34
30.06256,-97.15823,2015/10/16 12:59:31,30.0625648498535,-97.1582260131836,2015/10/16 12:57:14,2015/10/16 01:36:34
30.06236,-97.15823,2015/10/16 12:59:32,30.0623569488525,-97.1582336425781,2015/10/16 12:57:14,2015/10/16 01:36:34
30.06216,-97.15825,2015/10/16 12:59:33,30.0621566772461,-97.1582489013672,2015/10/16 12:57:14,2015/10/16 01:36:34
30.06196,-97.15827,2015/10/16 12:59:34,30.0619564056396,-97.1582717895508,2015/10/16 12:57:14,2015/10/16 01:36:34
30.06176,-97.15832,2015/10/16 12:59:35,30.0617599487305,-97.158317565918,2015/10/16 12:57:14,2015/10/16 01:36:34
30.06157,-97.15837,2015/10/16 12:59:36,30.0615692138672,-97.1583709716797,2015/10/16 12:57:14,2015/10/16 01:36:34
30.06139,-97.15844,2015/10/16 12:59:37,30.0613861083984,-97.1584396362305,2015/10/16 12:57:14,2015/10/16 01:36:34
30.0612,-97.15853,2015/10/16 12:59:38,30.0612010955811,-97.1585311889648,2015/10/16 12:57:14,2015/10/16 01:36:34
30.06104,-97.15862,2015/10/16 12:59:39,30.0610370635986,-97.1586227416992,2015/10/16 12:57:14,2015/10/16 01:36:34
30.06087,-97.15873,2015/10/16 12:59:40,30.0608692169189,-97.1587295532227,2015/10/16 12:57:14,2015/10/16 01:36:34
30.0607,-97.15885,2015/10/16 12:59:41,30.0607013702393,-97.1588516235352,2015/10/16 12:57:14,2015/10/16 01:36:34
30.06054,-97.15897,2015/10/16 12:59:42,30.0605430603027,-97.1589736938477,2015/10/16 12:57:14,2015/10/16 01:36:34
30.06038,-97.1591,2015/10/16 12:59:43,30.0603809356689,-97.1591033935547,2015/10/16 12:57:14,2015/10/16 01:36:34
30.06022,-97.15924,2015/10/16 12:59:44,30.0602245330811,-97.1592407226563,2015/10/16 12:57:14,2015/10/16 01:36:34
30.06007,-97.15939,2015/10/16 12:59:45,30.0600700378418,-97.1593856811523,2015/10/16 12:57:14,2015/10/16 01:36:34
30.05992,-97.15953,2015/10/16 12:59:46,30.0599193572998,-97.1595306396484,2015/10/16 12:57:14,2015/10/16 01:36:34
30.05977,-97.15968,2015/10/16 12:59:47,30.0597743988037,-97.1596755981445,2015/10/16 12:57:14,2015/10/16 01:36:34
30.05964,-97.15983,2015/10/16 12:59:48,30.0596370697021,-97.1598281860352,2015/10/16 12:57:14,2015/10/16 01:36:34
30.05951,-97.15999,2015/10/16 12:59:49,30.059513092041,-97.1599884033203,2015/10/16 12:57:14,2015/10/16 01:36:34
30.0594,-97.16016,2015/10/16 12:59:50,30.0594005584717,-97.1601638793945,2015/10/16 12:57:14,2015/10/16 01:36:34
30.05931,-97.16033,2015/10/16 12:59:51,30.0593109130859,-97.1603317260742,2015/10/16 12:57:14,2015/10/16 01:36:34
30.05923,-97.16051,2015/10/16 12:59:52,30.059232711792,-97.1605072021484,2015/10/16 12:57:14,2015/10/16 01:36:34
30.05917,-97.1607,2015/10/16 12:59:53,30.0591697692871,-97.1606979370117,2015/10/16 12:57:14,2015/10/16 01:36:34
30.05913,-97.16088,2015/10/16 12:59:54,30.0591316223145,-97.1608810424805,2015/10/16 12:57:14,2015/10/16 01:36:34
30.05911,-97.16108,2015/10/16 12:59:55,30.0591068267822,-97.1610794067383,2015/10/16 12:57:14,2015/10/16 01:36:34
30.0591,-97.16129,2015/10/16 12:59:56,30.0590972900391,-97.1612854003906,2015/10/16 12:57:14,2015/10/16 01:36:34
30.0591,-97.16148,2015/10/16 12:59:57,30.0590972900391,-97.1614837646484,2015/10/16 12:57:14,2015/10/16 01:36:34
30.05911,-97.16169,2015/10/16 12:59:58,30.0591087341309,-97.1616897583008,2015/10/16 12:57:14,2015/10/16 01:36:34
30.05914,-97.16189,2015/10/16 12:59:59,30.059139251709,-97.1618881225586,2015/10/16 12:57:14,2015/10/16 01:36:34
30.0592,-97.16207,2015/10/16 01:00:00,30.059196472168,-97.1620712280273,2015/10/16 12:57:14,2015/10/16 01:36:34
30.05927,-97.16224,2015/10/16 01:00:01,30.0592727661133,-97.162239074707,2015/10/16 12:57:14,2015/10/16 01:36:34
30.05936,-97.16239,2015/10/16 01:00:02,30.0593643188477,-97.1623916625977,2015/10/16 12:57:14,2015/10/16 01:36:34
30.05947,-97.16254,2015/10/16 01:00:03,30.0594711303711,-97.1625366210938,2015/10/16 12:57:14,2015/10/16 01:36:34
30.05959,-97.16267,2015/10/16 01:00:04,30.0595932006836,-97.1626663208008,2015/10/16 12:57:14,2015/10/16 01:36:34
30.05974,-97.16279,2015/10/16 01:00:05,30.0597381591797,-97.1627883911133,2015/10/16 12:57:14,2015/10/16 01:36:34
30.05988,-97.1629,2015/10/16 01:00:06,30.0598812103271,-97.1628952026367,2015/10/16 12:57:14,2015/10/16 01:36:34
30.06004,-97.163,2015/10/16 01:00:07,30.0600357055664,-97.1630020141602,2015/10/16 12:57:14,2015/10/16 01:36:34
30.06019,-97.1631,2015/10/16 01:00:08,30.0601921081543,-97.1631011962891,2015/10/16 12:57:14,2015/10/16 01:36:34
30.06035,-97.16322,2015/10/16 01:00:09,30.0603485107422,-97.163215637207,2015/10/16 12:57:14,2015/10/16 01:36:34
30.06049,-97.16335,2015/10/16 01:00:10,30.0604934692383,-97.1633453369141,2015/10/16 12:57:14,2015/10/16 01:36:34
30.06062,-97.1635,2015/10/16 01:00:11,30.0606155395508,-97.1634979248047,2015/10/16 12:57:14,2015/10/16 01:36:34
30.06071,-97.16367,2015/10/16 01:00:12,30.0607070922852,-97.1636657714844,2015/10/16 12:57:14,2015/10/16 01:36:34
30.06076,-97.16385,2015/10/16 01:00:13,30.0607566833496,-97.1638488769531,2015/10/16 12:57:14,2015/10/16 01:36:34
30.06076,-97.16403,2015/10/16 01:00:14,30.0607624053955,-97.1640319824219,2015/10/16 12:57:14,2015/10/16 01:36:34
30.06072,-97.1642,2015/10/16 01:00:15,30.0607223510742,-97.1641998291016,2015/10/16 12:57:14,2015/10/16 01:36:34
30.06065,-97.16434,2015/10/16 01:00:16,30.0606536865234,-97.1643371582031,2015/10/16 12:57:14,2015/10/16 01:36:34
30.06055,-97.16446,2015/10/16 01:00:17,30.0605487823486,-97.1644592285156,2015/10/16 12:57:14,2015/10/16 01:36:34
30.06042,-97.16456,2015/10/16 01:00:18,30.0604228973389,-97.1645584106445,2015/10/16 12:57:14,2015/10/16 01:36:34
30.06029,-97.16463,2015/10/16 01:00:19,30.0602893829346,-97.1646270751953,2015/10/16 12:57:14,2015/10/16 01:36:34
30.06014,-97.16467,2015/10/16 01:00:20,30.0601444244385,-97.1646728515625,2015/10/16 12:57:14,2015/10/16 01:36:34
30.05999,-97.16471,2015/10/16 01:00:21,30.0599899291992,-97.1647109985352,2015/10/16 12:57:14,2015/10/16 01:36:34
30.05984,-97.16473,2015/10/16 01:00:22,30.0598392486572,-97.1647262573242,2015/10/16 12:57:14,2015/10/16 01:36:34
30.05968,-97.16473,2015/10/16 01:00:23,30.0596828460693,-97.1647262573242,2015/10/16 12:57:14,2015/10/16 01:36:34
30.05952,-97.16471,2015/10/16 01:00:24,30.0595226287842,-97.1647109985352,2015/10/16 12:57:14,2015/10/16 01:36:34
30.05936,-97.16469,2015/10/16 01:00:25,30.0593566894531,-97.1646881103516,2015/10/16 12:57:14,2015/10/16 01:36:34
30.05919,-97.16467,2015/10/16 01:00:26,30.0591907501221,-97.164665222168,2015/10/16 12:57:14,2015/10/16 01:36:34
30.05902,-97.16464,2015/10/16 01:00:27,30.059024810791,-97.1646423339844,2015/10/16 12:57:14,2015/10/16 01:36:34
30.05886,-97.16461,2015/10/16 01:00:28,30.05885887146,-97.1646118164063,2015/10/16 12:57:14,2015/10/16 01:36:34
30.05869,-97.16459,2015/10/16 01:00:29,30.0586929321289,-97.1645889282227,2015/10/16 12:57:14,2015/10/16 01:36:34
30.05853,-97.16456,2015/10/16 01:00:30,30.0585269927979,-97.1645584106445,2015/10/16 12:57:14,2015/10/16 01:36:34
30.05836,-97.16454,2015/10/16 01:00:31,30.0583591461182,-97.1645355224609,2015/10/16 12:57:14,2015/10/16 01:36:34
30.05819,-97.16452,2015/10/16 01:00:32,30.0581855773926,-97.1645202636719,2015/10/16 12:57:14,2015/10/16 01:36:34
30.05802,-97.1645,2015/10/16 01:00:33,30.0580158233643,-97.1644973754883,2015/10/16 12:57:14,2015/10/16 01:36:34
30.05785,-97.16449,2015/10/16 01:00:34,30.0578536987305,-97.1644897460938,2015/10/16 12:57:14,2015/10/16 01:36:34
30.05769,-97.16447,2015/10/16 01:00:35,30.0576877593994,-97.1644744873047,2015/10/16 12:57:14,2015/10/16 01:36:34
30.05752,-97.16447,2015/10/16 01:00:36,30.0575218200684,-97.1644668579102,2015/10/16 12:57:14,2015/10/16 01:36:34
30.05736,-97.16445,2015/10/16 01:00:37,30.0573558807373,-97.1644515991211,2015/10/16 12:57:14,2015/10/16 01:36:34
30.05719,-97.16444,2015/10/16 01:00:38,30.0571937561035,-97.164436340332,2015/10/16 12:57:14,2015/10/16 01:36:34
30.05703,-97.16441,2015/10/16 01:00:39,30.0570335388184,-97.1644058227539,2015/10/16 12:57:14,2015/10/16 01:36:34
30.05687,-97.16437,2015/10/16 01:00:40,30.0568733215332,-97.1643676757813,2015/10/16 12:57:14,2015/10/16 01:36:34
30.05672,-97.16433,2015/10/16 01:00:41,30.0567150115967,-97.1643295288086,2015/10/16 12:57:14,2015/10/16 01:36:34
30.05655,-97.16431,2015/10/16 01:00:42,30.0565528869629,-97.1643142700195,2015/10/16 12:57:14,2015/10/16 01:36:34